Location: Unspecified
(43.4680°N, 87.1740°E)
Time: 14:47:51
(UTC+00:00)

CZ-2D R/B - Pass Details

Date: 26 July 2021
Orbit: 553 x 637 km, 97.9° (Epoch: 17 September)

Event Time Altitude Azimuth Distance (km) Brightness Sun altitude
Rises 22:14:29 0° 5° (N) 2,752 7.5 -7.2°
Reaches altitude 10° 22:16:41 10° 358° (N) 1,859 6.5 -6.8°
Maximum altitude 22:20:27 40° 289° (WNW) 845 4.0 -6.3°
Drops below altitude 10° 22:24:15 10° 219° (SW) 1,881 5.4 -5.7°
Enters shadow 22:25:20 - 215° (SW) 2,310 5.9 -5.5°
